Wind_Speed
43 43 44 45 48 51 53 55 57 55 53 55 57 59 61 63 58 58 57 61 65 73 70 78 83 83 90 91 86 76 62 45 39 36 34 38 43 44 41 40 40 42 43 49
47 47 47 48 50 52 56 57 59 57 54 56 59 59 63 65 63 60 65 65 70 69 77 77 88 86 96 92 83 81 71 49 36 34 35 38 42 45 47 47 45 45 47 48
49 50 51 52 53 54 55 57 60 58 59 61 60 64 64 63 62 59 69 73 77 82 83 87 91 94 98 95 86 80 74 58 41 34 35 39 40 42 47 51 51 51 51 53
52 53 54 54 55 57 59 60 60 58 59 64 64 64 67 64 63 65 71 76 82 84 88 90 93 96 97 94 89 77 70 58 47 37 36 38 43 44 46 50 52 53 54 56
54 55 56 56 56 59 60 59 59 56 60 66 67 67 70 67 64 69 78 82 88 91 94 96 95 100 98 93 87 77 66 60 48 43 43 41 38 40 43 43 46 54 60 62
58 58 58 58 59 62 60 57 57 57 59 62 64 65 69 70 73 76 77 86 90 94 98 101 99 102 103 91 86 74 64 59 57 50 47 45 43 41 43 46 48 52 56 61
60 61 62 64 64 63 61 61 60 61 61 63 67 68 74 78 78 80 83 88 93 98 100 101 105 107 103 92 84 71 64 64 64 57 52 48 45 45 45 46 50 53 55 55
63 66 68 68 66 60 62 69 70 72 71 67 70 75 76 79 79 83 86 92 96 102 102 105 108 107 99 89 84 73 69 68 68 63 63 58 53 47 46 47 48 52 57 58
64 67 69 67 65 64 67 72 75 78 77 72 71 67 74 82 86 92 94 98 100 103 106 108 106 104 96 89 85 79 75 76 71 70 65 66 63 56 51 53 54 55 57 60
67 63 67 67 65 71 75 78 82 86 86 79 72 68 84 83 88 92 98 101 104 104 107 112 111 105 98 91 85 83 81 79 79 74 72 70 67 64 63 60 59 57 59 60
69 66 67 66 70 75 78 81 85 88 86 87 85 73 87 93 95 98 103 106 109 110 112 111 110 102 98 92 88 86 83 84 82 80 79 75 74 69 68 67 65 63 62 62
70 68 62 68 75 79 80 86 90 90 87 85 88 81 93 97 97 105 109 111 111 113 115 112 107 97 93 94 91 87 88 87 87 85 85 85 83 79 74 73 69 68 67 65
71 66 69 72 79 83 84 90 93 89 87 89 93 94 99 106 105 110 112 113 114 115 116 110 104 93 91 91 87 89 91 93 92 91 90 89 87 82 80 78 74 69 67 66
72 72 79 80 82 88 87 91 91 95 97 99 99 101 105 112 114 117 118 120 120 119 111 112 99 95 96 94 92 96 97 96 95 94 91 87 82 78 76 75 73 70 68 66
82 81 84 82 89 92 88 91 96 99 100 108 106 108 115 116 120 122 124 123 123 118 113 113 103 105 101 100 100 99 100 99 97 96 92 88 84 81 77 75 72 69 69 66
87 89 92 86 95 92 83 94 99 102 105 112 117 115 119 121 126 126 126 126 120 119 120 110 108 108 102 101 101 102 101 102 98 94 90 87 83 80 77 75 72 69 66 64
91 95 100 96 97 95 95 100 101 104 108 117 120 123 125 126 126 126 126 123 121 119 113 110 113 111 106 102 99 99 102 104 97 90 87 83 81 78 76 73 70 66 63 62
100 100 105 104 104 101 104 111 112 115 116 121 123 126 126 128 128 127 123 125 119 116 112 113 114 112 103 100 101 105 106 103 94 87 84 81 80 75 74 70 69 64 62 61
105 110 111 109 112 113 107 114 119 123 121 126 129 131 131 132 130 129 132 124 119 114 115 117 112 108 105 104 106 109 104 97 92 86 84 81 78 74 72 68 66 64 61 61
105 107 106 110 115 119 118 121 123 127 126 131 132 132 131 130 133 133 128 122 119 121 118 114 110 108 107 107 111 108 99 94 91 86 83 80 77 72 68 66 64 62 61 59
114 114 113 117 122 124 126 128 130 132 135 137 136 135 136 139 133 128 127 124 124 121 118 113 111 111 113 111 112 102 95 92 88 84 80 75 71 68 65 63 62 61 58 54
116 119 121 125 129 130 131 134 137 138 138 142 142 142 137 131 127 128 129 127 122 120 118 116 114 114 116 113 108 98 93 88 84 79 75 72 69 66 65 64 61 59 55 51
121 122 126 131 135 138 139 139 141 141 144 144 142 135 132 129 130 126 124 123 119 119 118 117 117 119 115 109 100 94 88 84 81 77 72 70 68 66 64 64 61 56 51 48
127 129 133 138 139 140 141 144 144 148 141 135 132 132 133 128 124 123 123 122 122 123 122 122 120 115 108 101 96 90 85 82 78 75 72 70 69 67 64 63 59 53 49 46
134 137 139 141 142 143 143 143 138 135 133 131 132 131 128 127 127 125 124 124 126 127 125 121 114 105 101 95 90 86 83 80 76 73 71 70 68 65 62 59 56 52 48 47
139 143 145 142 139 136 133 130 131 129 130 132 130 130 128 125 125 126 127 129 128 123 114 108 103 98 93 90 87 82 79 77 74 72 70 68 66 63 61 58 56 53 49 48
Wind_Direction
336 336 336 336 336 337 340 339 339 341 342 340 338 339 339 339 340 341 342 344 347 351 349 357 353 350 349 349 348 346 344 332 320 307 290 285 285 283 278 270 265 260 252 246
333 332 333 331 333 335 335 335 335 335 337 338 337 335 334 334 333 334 339 342 341 340 349 348 350 348 346 346 347 343 343 335 319 305 284 282 281 279 279 277 269 264 261 255
329 330 328 328 330 330 330 330 331 332 334 337 336 330 332 333 334 334 341 343 346 346 349 348 350 349 346 345 344 342 338 336 323 306 299 274 268 273 273 272 271 267 261 258
325 326 327 326 326 327 327 328 329 331 334 334 333 330 328 331 332 337 342 345 347 345 348 347 347 345 342 343 342 338 336 332 331 310 303 293 273 265 265 267 268 269 269 264
322 323 324 324 323 322 323 325 328 330 331 331 330 331 330 327 332 339 340 343 343 344 344 345 343 343 340 340 337 337 336 335 332 330 321 308 290 277 272 273 272 272 269 266
320 319 318 318 319 320 320 322 325 327 329 330 329 326 326 325 327 337 339 341 340 343 344 343 341 340 338 337 335 335 333 331 332 327 327 321 309 296 286 279 276 273 268 266
316 316 317 317 318 319 318 320 319 322 325 323 322 324 322 321 327 334 338 340 339 341 340 339 339 337 335 334 333 332 330 330 330 331 328 321 313 304 295 292 290 285 277 270
313 314 316 317 316 316 315 316 315 317 319 321 321 322 321 320 324 331 334 336 338 339 336 339 335 335 334 332 333 331 331 330 329 328 325 324 318 308 299 293 289 287 283 279
310 315 314 314 315 314 313 313 315 315 318 320 321 327 317 318 325 333 332 335 337 337 335 334 333 331 332 332 331 330 330 329 328 326 324 321 318 314 307 303 297 291 285 279
309 312 310 311 314 313 314 313 315 315 314 316 321 322 318 324 326 330 332 335 336 335 332 329 329 329 329 330 329 328 328 328 325 326 323 321 317 313 312 306 302 294 286 281
306 308 309 310 312 311 313 313 315 315 315 314 316 324 318 324 328 328 330 333 333 332 330 329 327 327 326 326 327 326 325 324 324 324 323 320 316 313 310 307 304 298 292 286
303 306 304 308 310 312 314 313 313 310 314 316 314 326 323 322 327 328 330 331 330 328 326 327 325 323 324 323 324 323 322 322 322 321 321 319 317 314 310 305 302 298 294 288
302 304 303 308 305 307 311 310 311 307 308 312 317 322 322 323 327 325 328 327 325 324 323 324 322 322 320 319 319 321 322 322 322 321 318 315 311 310 307 303 300 295 292 287
302 303 303 307 304 307 311 312 309 311 317 316 320 323 318 322 324 325 325 324 323 322 320 319 320 319 319 319 319 321 323 321 319 316 313 310 308 306 303 300 296 293 291 287
301 301 301 303 306 307 312 312 311 313 317 318 320 323 318 321 321 322 321 320 319 318 316 318 319 320 320 319 319 319 319 317 313 313 311 309 308 304 302 298 295 292 291 289
300 301 300 304 305 309 312 309 312 314 316 315 317 320 319 321 320 318 317 317 316 314 316 317 320 319 318 318 315 313 313 314 311 311 309 307 304 303 301 297 295 292 290 291
302 302 301 306 303 304 308 311 311 314 315 314 317 317 318 317 316 314 314 313 312 315 315 316 316 315 315 314 314 313 312 312 312 310 307 305 304 303 301 299 297 295 294 292
301 301 303 305 304 304 308 307 310 311 311 313 314 313 312 312 312 312 311 310 312 313 313 314 315 315 314 313 313 314 313 312 310 309 307 305 304 302 300 299 298 298 296 295
301 303 304 303 304 306 308 306 307 309 312 311 311 310 310 310 311 308 310 311 312 311 312 313 314 314 314 312 311 312 312 310 309 308 306 304 302 301 299 300 299 298 297 296
299 300 302 303 302 305 308 309 308 307 309 308 308 307 308 307 305 308 308 307 310 312 311 312 311 311 310 309 311 312 310 309 308 306 305 304 303 303 301 299 299 299 298 296
296 299 300 300 303 305 306 306 306 305 306 307 307 306 305 307 309 307 309 309 309 311 312 311 310 310 311 311 312 310 310 308 306 305 305 305 304 303 302 301 299 299 298 295
296 299 299 298 300 302 302 302 303 305 304 305 305 307 307 307 308 309 308 309 310 311 311 311 311 311 310 310 310 308 307 306 306 306 305 305 305 304 303 301 300 299 296 293
295 298 299 300 300 300 301 301 302 302 303 305 305 306 307 307 308 309 310 310 311 310 310 310 309 309 308 308 307 306 307 307 306 306 305 305 305 304 302 300 300 297 294 291
297 298 297 298 299 300 300 301 302 303 305 305 305 305 306 306 306 307 308 309 308 308 308 307 307 307 308 307 307 307 307 306 305 305 304 304 303 302 300 298 298 296 293 290
296 297 297 296 296 298 299 301 301 302 303 304 304 305 306 305 305 306 306 306 306 305 305 306 306 307 306 307 307 307 306 304 304 304 304 303 302 301 299 297 297 295 293 290
294 295 296 296 296 297 299 300 301 302 303 303 303 303 304 304 304 304 304 304 304 306 306 306 305 306 306 306 305 305 304 303 304 304 303 302 300 299 298 296 295 293 291 289
Height
10782 10778 10773 10768 10762 10756 10751 10745 10738 10734 10726 10717 10710 10703 10697 10689 10681 10674 10665 10656 10647 10639 10629 10620 10610 10598 10589 10577 10565 10556 10549 10539 10531 10525 10521 10517 10514 10511 10508 10507 10506 10506 10505 10505
10777 10773 10768 10763 10757 10751 10744 10738 10731 10725 10722 10715 10705 10698 10690 10681 10673 10666 10655 10649 10638 10628 10619 10610 10600 10588 10576 10566 10554 10543 10534 10526 10519 10513 10507 10504 10501 10498 10496 10493 10492 10491 10491 10491
10773 10767 10761 10756 10749 10744 10740 10733 10726 10718 10708 10704 10699 10684 10682 10675 10666 10658 10647 10637 10627 10617 10606 10597 10588 10578 10567 10553 10541 10531 10521 10513 10506 10498 10493 10488 10483 10481 10479 10477 10476 10475 10474 10474
10766 10760 10754 10748 10742 10735 10729 10724 10717 10710 10702 10692 10686 10679 10668 10663 10658 10651 10639 10627 10615 10605 10595 10584 10575 10563 10552 10543 10531 10521 10510 10500 10493 10486 10477 10471 10467 10463 10461 10460 10459 10457 10457 10456
10758 10752 10746 10740 10733 10727 10722 10717 10710 10703 10695 10683 10673 10666 10653 10649 10646 10639 10628 10614 10603 10591 10580 10570 10560 10549 10538 10527 10518 10508 10499 10490 10481 10474 10467 10458 10452 10448 10444 10442 10440 10437 10435 10433
10749 10743 10737 10730 10724 10717 10711 10706 10702 10694 10688 10680 10668 10658 10649 10638 10633 10626 10615 10603 10590 10577 10566 10555 10545 10535 10526 10515 10504 10495 10487 10478 10470 10460 10452 10445 10438 10434 10429 10424 10420 10416 10413 10410
10739 10731 10726 10718 10712 10705 10698 10693 10690 10688 10682 10672 10661 10654 10636 10623 10619 10612 10602 10590 10576 10563 10551 10539 10529 10519 10509 10500 10490 10480 10472 10464 10454 10445 10438 10431 10424 10417 10411 10406 10401 10397 10393 10389
10729 10718 10712 10706 10700 10695 10686 10677 10671 10669 10670 10665 10653 10641 10623 10609 10604 10596 10587 10574 10559 10546 10534 10524 10512 10502 10493 10482 10473 10464 10455 10447 10438 10429 10419 10413 10407 10400 10394 10388 10382 10376 10371 10366
10720 10711 10699 10693 10687 10680 10677 10665 10657 10648 10649 10645 10642 10637 10616 10598 10589 10579 10569 10558 10543 10529 10516 10504 10495 10482 10473 10462 10454 10446 10437 10427 10419 10411 10403 10394 10386 10380 10373 10368 10359 10353 10348 10343
10708 10705 10687 10680 10675 10665 10657 10648 10640 10631 10623 10625 10627 10622 10592 10587 10576 10564 10550 10537 10525 10511 10499 10487 10475 10462 10451 10443 10435 10426 10417 10409 10401 10391 10382 10375 10367 10357 10351 10344 10336 10330 10325 10319
10692 10690 10679 10668 10662 10653 10645 10633 10623 10611 10601 10593 10594 10611 10579 10567 10557 10546 10532 10518 10506 10493 10481 10467 10454 10444 10432 10423 10413 10405 10396 10388 10379 10369 10360 10353 10344 10335 10326 10319 10312 10307 10301 10295
10676 10675 10668 10658 10646 10638 10632 10619 10608 10592 10588 10579 10570 10589 10562 10548 10541 10526 10512 10496 10484 10473 10461 10451 10439 10426 10414 10401 10393 10384 10375 10366 10355 10346 10336 10327 10317 10310 10303 10294 10287 10280 10275 10269
10661 10659 10651 10648 10635 10625 10623 10609 10591 10576 10574 10570 10552 10549 10535 10521 10517 10501 10491 10480 10468 10455 10444 10432 10422 10410 10400 10388 10375 10364 10353 10341 10330 10320 10312 10302 10295 10286 10277 10269 10261 10255 10250 10243
10641 10641 10629 10627 10617 10606 10607 10593 10569 10556 10553 10541 10538 10530 10515 10497 10491 10476 10467 10459 10447 10435 10424 10413 10402 10392 10379 10367 10354 10341 10328 10318 10308 10298 10290 10282 10273 10263 10254 10245 10236 10227 10222 10217
10620 10620 10612 10611 10597 10589 10592 10570 10550 10540 10534 10513 10514 10507 10485 10480 10467 10456 10443 10434 10424 10413 10402 10391 10379 10366 10354 10343 10331 10320 10309 10299 10289 10278 10266 10255 10245 10237 10229 10219 10210 10201 10194 10188
10603 10595 10588 10600 10572 10569 10578 10551 10539 10529 10519 10498 10486 10486 10467 10462 10445 10433 10422 10410 10400 10389 10378 10365 10352 10341 10330 10320 10310 10300 10288 10278 10266 10254 10241 10230 10220 10211 10201 10191 10183 10176 10169 10162
10586 10574 10560 10569 10553 10552 10553 10537 10522 10514 10503 10481 10472 10459 10449 10436 10425 10416 10404 10390 10380 10369 10358 10347 10336 10323 10309 10298 10287 10276 10264 10251 10239 10228 10216 10205 10194 10184 10174 10166 10158 10151 10144 10137
10567 10553 10542 10535 10526 10527 10522 10507 10495 10487 10482 10461 10453 10440 10429 10419 10407 10393 10382 10372 10359 10348 10336 10323 10310 10297 10285 10272 10260 10248 10235 10223 10212 10201 10189 10179 10169 10160 10151 10143 10135 10127 10120 10113
10544 10531 10518 10507 10496 10493 10503 10477 10463 10452 10456 10438 10425 10412 10401 10391 10380 10366 10355 10343 10331 10320 10309 10298 10285 10271 10258 10247 10235 10222 10208 10195 10184 10173 10162 10153 10145 10137 10128 10120 10111 10104 10098 10091
10529 10517 10502 10489 10474 10467 10462 10455 10444 10432 10432 10418 10407 10395 10382 10372 10360 10347 10331 10318 10305 10292 10282 10271 10259 10248 10235 10221 10206 10192 10180 10168 10157 10147 10137 10128 10119 10111 10103 10096 10089 10082 10076 10069
10505 10493 10483 10467 10451 10448 10435 10424 10416 10405 10396 10391 10378 10365 10354 10341 10326 10312 10300 10288 10277 10263 10250 10238 10227 10216 10203 10190 10177 10164 10152 10142 10132 10122 10112 10103 10095 10087 10080 10074 10067 10061 10055 10049
10475 10462 10457 10442 10426 10421 10415 10398 10389 10380 10367 10355 10342 10331 10317 10303 10289 10278 10263 10251 10242 10231 10219 10207 10196 10184 10173 10161 10150 10139 10128 10117 10106 10097 10088 10080 10072 10065 10058 10052 10047 10041 10035 10029
10446 10440 10429 10415 10398 10389 10381 10373 10361 10350 10338 10325 10313 10299 10286 10274 10261 10248 10236 10224 10213 10202 10189 10178 10167 10155 10144 10134 10123 10112 10101 10090 10081 10073 10065 10057 10050 10044 10038 10031 10026 10021 10016 10012
10420 10413 10398 10383 10374 10363 10352 10341 10331 10317 10305 10294 10283 10271 10259 10246 10233 10221 10211 10198 10183 10171 10160 10148 10137 10125 10113 10103 10093 10083 10074 10064 10056 10049 10042 10035 10028 10023 10018 10011 10006 10002 9998 9994
10395 10385 10372 10357 10347 10337 10325 10312 10301 10289 10276 10265 10253 10240 10227 10216 10204 10193 10180 10167 10155 10142 10129 10117 10105 10094 10084 10075 10064 10057 10048 10039 10031 10025 10019 10012 10006 10002 9997 9992 9987 9983 9980 9976
10366 10354 10344 10330 10320 10311 10299 10285 10273 10261 10250 10237 10225 10212 10200 10188 10176 10163 10150 10136 10123 10110 10097 10085 10074 10066 10056 10047 10037 10032 10023 10014 10008 10002 9996 9990 9985 9980 9976 9972 9968 9964 9961 9958